Total_Precipitation_Accumulation
2.12 2.04 2.07 2.03 1.95 1.81 1.72 1.63 1.54 1.47 1.44 1.39 1.39 1.39 1.35 1.33 1.32 1.35 1.31 1.33 1.42 1.44 1.41 1.42 1.43 1.48 1.56 1.52 1.59 1.71 1.88 2.12 2.29 2.06 1.91 1.81 1.77 1.81 1.81 1.70 1.60 1.49 1.36
1.75 1.82 1.92 1.82 1.75 1.67 1.64 1.61 1.54 1.38 1.36 1.35 1.36 1.29 1.14 1.09 1.18 1.26 1.25 1.22 1.34 1.35 1.30 1.36 1.37 1.41 1.48 1.51 1.60 1.70 1.79 1.99 2.14 2.19 2.02 1.88 1.80 1.78 1.81 1.74 1.47 1.33 1.28
1.49 1.51 1.60 1.61 1.58 1.55 1.41 1.38 1.37 1.33 1.31 1.26 1.21 1.20 1.12 1.02 1.04 1.06 1.10 1.09 1.15 1.21 1.21 1.28 1.33 1.40 1.40 1.45 1.53 1.60 1.71 1.82 2.01 2.11 1.99 1.88 1.81 1.74 1.87 1.75 1.62 1.68 1.38
1.38 1.50 1.51 1.52 1.57 1.59 1.52 1.44 1.36 1.29 1.24 1.20 1.12 1.07 1.05 1.00 0.89 0.85 0.89 0.98 1.08 1.08 1.07 1.18 1.24 1.30 1.31 1.39 1.43 1.52 1.60 1.80 1.97 2.03 1.92 1.81 1.76 1.78 1.90 1.91 1.82 1.74 1.58
1.21 1.36 1.46 1.40 1.37 1.42 1.48 1.38 1.22 1.15 1.06 1.04 0.98 0.93 0.95 0.88 0.76 0.79 0.82 0.84 0.96 1.00 1.00 1.06 1.11 1.14 1.16 1.21 1.21 1.35 1.53 1.72 1.84 1.93 1.88 1.83 1.78 1.89 1.90 1.84 1.80 1.78 1.62
1.11 1.27 1.36 1.33 1.29 1.29 1.34 1.30 1.23 1.16 1.10 1.06 1.02 0.97 0.91 0.78 0.76 0.72 0.73 0.78 0.88 0.98 1.08 1.08 1.00 0.99 0.96 0.92 0.96 1.08 1.27 1.52 1.76 1.89 1.84 1.84 1.82 1.88 1.98 1.97 1.92 1.96 1.91
1.17 1.19 1.24 1.29 1.32 1.31 1.29 1.28 1.29 1.30 1.27 1.17 1.06 1.01 0.95 0.83 0.73 0.61 0.60 0.68 0.87 1.01 1.11 1.10 0.92 0.84 0.96 0.96 0.98 1.00 1.09 1.22 1.48 1.77 1.87 1.78 1.82 1.91 2.10 2.15 2.08 2.05 2.01
1.19 1.12 1.13 1.14 1.17 1.16 1.20 1.25 1.26 1.26 1.21 1.13 1.04 1.01 0.97 0.77 0.65 0.57 0.58 0.64 0.78 0.83 0.87 0.95 1.03 1.03 0.96 1.01 1.02 1.12 1.18 1.27 1.34 1.48 1.71 1.67 1.64 1.79 1.98 2.01 2.00 1.96 1.89
1.12 1.06 1.00 0.95 1.00 1.02 1.06 1.18 1.29 1.28 1.16 1.04 0.96 0.95 0.92 0.77 0.69 0.64 0.63 0.67 0.74 0.71 0.68 0.74 0.83 0.87 0.87 0.94 1.05 1.24 1.30 1.40 1.37 1.53 1.56 1.49 1.50 1.55 1.56 1.67 1.94 2.13 2.02
1.08 0.97 0.89 0.90 0.98 0.99 1.03 1.13 1.21 1.25 1.12 0.93 0.85 0.88 0.83 0.79 0.70 0.59 0.56 0.58 0.69 0.71 0.74 0.79 0.77 0.70 0.75 0.85 1.05 1.31 1.48 1.53 1.59 1.71 1.67 1.63 1.53 1.51 1.44 1.51 1.86 2.14 2.11
0.93 0.90 0.90 0.95 1.03 1.03 1.12 1.19 1.14 1.04 1.01 0.93 0.87 0.86 0.76 0.64 0.55 0.46 0.46 0.51 0.61 0.70 0.76 0.85 0.85 0.72 0.66 0.73 0.94 1.17 1.35 1.40 1.65 1.91 1.77 1.59 1.54 1.50 1.47 1.48 1.66 1.81 1.81
0.86 0.88 0.94 0.96 0.91 0.91 1.08 1.15 1.07 1.01 0.98 0.95 0.93 0.86 0.73 0.59 0.50 0.44 0.39 0.39 0.44 0.63 0.80 0.83 0.84 0.78 0.73 0.79 0.94 1.11 1.24 1.43 1.66 1.79 1.60 1.43 1.33 1.31 1.36 1.32 1.32 1.35 1.42
0.84 0.96 1.01 0.95 1.02 1.01 1.00 1.04 1.06 1.05 0.95 0.87 0.86 0.80 0.73 0.65 0.56 0.44 0.39 0.38 0.42 0.54 0.71 0.79 0.76 0.72 0.82 1.03 1.16 1.26 1.42 1.65 1.71 1.58 1.45 1.32 1.21 1.25 1.23 1.22 1.22 1.27 1.26
0.89 0.97 0.98 1.00 1.09 1.08 0.99 0.86 0.83 0.84 0.81 0.76 0.74 0.69 0.70 0.72 0.58 0.48 0.49 0.48 0.50 0.57 0.70 0.84 0.89 0.89 1.04 1.22 1.36 1.46 1.58 1.68 1.54 1.41 1.35 1.24 1.14 1.21 1.25 1.20 1.31 1.36 1.35
0.81 0.87 0.88 0.88 0.95 1.02 0.93 0.77 0.71 0.64 0.57 0.56 0.56 0.53 0.59 0.59 0.49 0.46 0.43 0.48 0.56 0.62 0.70 0.87 1.01 1.04 1.15 1.30 1.43 1.50 1.55 1.56 1.49 1.35 1.29 1.22 1.16 1.16 1.12 1.08 1.19 1.28 1.32
0.75 0.73 0.69 0.72 0.78 0.81 0.81 0.74 0.56 0.42 0.35 0.31 0.32 0.35 0.35 0.36 0.34 0.33 0.34 0.40 0.47 0.59 0.74 1.02 1.11 1.09 1.13 1.21 1.33 1.43 1.44 1.42 1.37 1.38 1.38 1.34 1.27 1.17 1.13 1.08 1.09 1.17 1.25
0.70 0.67 0.59 0.57 0.63 0.67 0.67 0.75 0.69 0.47 0.28 0.21 0.20 0.25 0.28 0.26 0.26 0.27 0.30 0.36 0.43 0.57 0.77 1.01 1.12 1.14 1.17 1.20 1.23 1.29 1.35 1.36 1.30 1.31 1.34 1.29 1.19 1.11 1.09 1.09 1.09 1.15 1.18
0.54 0.51 0.53 0.58 0.57 0.55 0.54 0.55 0.59 0.65 0.58 0.43 0.30 0.26 0.26 0.27 0.30 0.30 0.32 0.38 0.47 0.55 0.77 0.96 1.07 1.12 1.16 1.20 1.20 1.19 1.24 1.28 1.23 1.18 1.22 1.21 1.14 1.09 1.10 1.12 1.12 1.07 1.07
0.50 0.48 0.50 0.50 0.48 0.45 0.44 0.43 0.45 0.52 0.57 0.58 0.52 0.41 0.35 0.35 0.36 0.37 0.43 0.51 0.62 0.67 0.74 0.84 0.95 1.03 1.04 1.06 1.11 1.13 1.17 1.21 1.15 1.11 1.14 1.16 1.14 1.10 1.05 0.98 0.95 0.86 0.92
0.43 0.39 0.39 0.42 0.39 0.38 0.39 0.43 0.43 0.48 0.52 0.55 0.57 0.55 0.51 0.57 0.65 0.60 0.55 0.60 0.65 0.65 0.66 0.76 0.85 0.89 0.90 0.86 0.88 0.92 0.96 0.97 0.98 1.02 1.08 1.05 0.99 0.95 0.88 0.82 0.82 0.84 0.88
0.38 0.38 0.39 0.36 0.33 0.33 0.37 0.40 0.39 0.43 0.47 0.50 0.46 0.48 0.62 0.67 0.72 0.69 0.66 0.70 0.75 0.74 0.71 0.74 0.77 0.78 0.78 0.76 0.74 0.74 0.78 0.83 0.86 0.89 0.95 0.94 0.87 0.83 0.78 0.73 0.70 0.70 0.71
0.35 0.37 0.37 0.34 0.32 0.31 0.32 0.33 0.34 0.39 0.44 0.49 0.49 0.49 0.63 0.64 0.66 0.69 0.74 0.80 0.84 0.80 0.76 0.75 0.74 0.72 0.72 0.72 0.68 0.68 0.71 0.74 0.76 0.79 0.81 0.79 0.76 0.72 0.64 0.61 0.60 0.58 0.59
0.35 0.37 0.38 0.37 0.35 0.34 0.34 0.34 0.34 0.38 0.41 0.47 0.52 0.55 0.61 0.68 0.71 0.77 0.84 0.86 0.85 0.85 0.78 0.73 0.79 0.81 0.74 0.67 0.60 0.57 0.59 0.61 0.61 0.67 0.77 0.78 0.70 0.63 0.57 0.54 0.54 0.54 0.53
0.34 0.34 0.35 0.38 0.42 0.45 0.45 0.42 0.36 0.33 0.35 0.39 0.45 0.47 0.52 0.60 0.66 0.69 0.76 0.79 0.84 0.87 0.84 0.81 0.86 0.80 0.68 0.62 0.57 0.54 0.56 0.58 0.59 0.63 0.67 0.71 0.66 0.58 0.51 0.49 0.50 0.53 0.55
0.33 0.34 0.35 0.36 0.36 0.39 0.44 0.45 0.42 0.41 0.39 0.36 0.37 0.41 0.45 0.49 0.54 0.59 0.65 0.67 0.71 0.79 0.77 0.77 0.78 0.69 0.60 0.55 0.52 0.53 0.59 0.57 0.54 0.59 0.65 0.68 0.60 0.54 0.50 0.45 0.46 0.48 0.51
0.30 0.31 0.34 0.33 0.31 0.31 0.33 0.34 0.34 0.39 0.44 0.44 0.40 0.42 0.46 0.46 0.48 0.51 0.54 0.56 0.60 0.63 0.65 0.69 0.69 0.59 0.50 0.48 0.46 0.44 0.41 0.36 0.35 0.42 0.55 0.59 0.52 0.46 0.48 0.48 0.45 0.48 0.52